This demonstration page uses our WeatherBlox Daily Observations layout. Learn more.

Left ArrowRight Arrow

39.01783, -85.05884

Hourly Observations for May 23, 2018

Temp ( °F °C ) Dew Point ( °F °C ) Humidity (%) Winds ( mph kmh ) Pressure ( in mb ) Visibility ( mi km ) Precip ( " mm )
12:52 am 00:52 Mostly Clear 70 21.1 60 15.6 71 71 N 12 19 30.01 1016 10 16 0.00 0.00
1:52 am 01:52 Mostly Clear 68 20 59 15 73 73 N 9 15 30.02 1017 10 16 0.00 0.00
2:52 am 02:52 Mostly Clear 67 19.4 58 14.4 73 73 ENE 7 11 30.03 1017 10 16 0.00 0.00
3:52 am 03:52 Partly Cloudy 64 17.8 58 14.4 81 81 N 6 9 30.04 1017 10 16 0.00 0.00
4:52 am 04:52 Mostly Cloudy 63 17.2 59 15 87 87 N 7 11 30.05 1018 10 16 0.00 0.00
5:52 am 05:52 Mostly Clear 63 17.2 58 14.4 84 84 N 7 11 30.06 1018 10 16 0.00 0.00
6:52 am 06:52 Mostly Sunny 62 16.7 58 14.4 86 86 NNE 5 7 30.08 1019 10 16 0.00 0.00
7:52 am 07:52 Mostly Sunny 65 18.3 59 15 81 81 N 6 9 30.09 1019 10 16 0.00 0.00
8:52 am 08:52 Partly Cloudy 68 20 60 15.6 76 76 NNE 7 11 30.10 1019 10 16 0.00 0.00
9:52 am 09:52 Mostly Sunny 70 21.1 60 15.6 71 71 NE 7 11 30.12 1020 10 16 0.00 0.00
10:52 am 10:52 Partly Cloudy 73 22.8 60 15.6 64 64 N 5 7 30.12 1020 10 16 0.00 0.00
11:52 am 11:52 Partly Cloudy 73 22.8 60 15.6 64 64 Calm 30.13 1020 10 16 0.00 0.00
12:52 pm 12:52 Partly Cloudy 76 24.4 59 15 56 56 NNW 8 13 30.13 1020 10 16 0.00 0.00
1:52 pm 13:52 Mostly Sunny 78 25.6 58 14.4 50 50 VRB 5 7 30.13 1020 10 16 0.00 0.00
2:52 pm 14:52 Mostly Sunny 79 26.1 56 13.3 45 45 Calm 30.11 1020 10 16 0.00 0.00
3:52 pm 15:52 Mostly Sunny 80 26.7 56 13.3 44 44 N 8 13 30.11 1020 10 16 0.00 0.00
4:52 pm 16:52 Mostly Sunny 80 26.7 55 12.8 42 42 ENE 9 15 30.11 1020 10 16 0.00 0.00
5:52 pm 17:52 Mostly Sunny 80 26.7 53 11.7 39 39 NE 13 20 30.10 1019 10 16 0.00 0.00
6:52 pm 18:52 Mostly Sunny 80 26.7 52 11.1 38 38 NNE 8 13 30.09 1019 10 16 0.00 0.00
7:52 pm 19:52 Partly Cloudy 77 25 55 12.8 47 47 E 9 15 30.09 1019 10 16 0.00 0.00
8:52 pm 20:52 Partly Cloudy 73 22.8 54 12.2 51 51 E 8 13 30.10 1019 10 16 0.00 0.00
9:52 pm 21:52 Mostly Cloudy 71 21.7 55 12.8 57 57 E 7 11 30.12 1020 10 16 0.00 0.00
10:52 pm 22:52 Mostly Cloudy 71 21.7 54 12.2 55 55 ENE 7 11 30.14 1021 10 16 0.00 0.00
11:52 pm 23:52 Mostly Cloudy 69 20.6 55 12.8 61 61 E 7 11 30.16 1021 10 16 0.00 0.00

Powered by AerisWeather